User: anonymous   Login
Location: D�rnast
(49.6426°N, 11.9755°E)
Time: 01:59:37
(UTC+00:00)
Language:

Cosmos 44 - Orbit

View from above orbital plane
View from above orbital plane
View from above satellite
View from above satellite

Ground track
Ground track

The orbit data is extracted from the following two-line orbital elements,

1 00876U 64053A   21107.42693593 -.00000072  00000-0  11577-4 0  9996
2 00876  65.0586 130.4977 0155864 280.8577  77.5017 14.63791724 12363
Epoch (UTC): 17 April 2021 10:14:47
Eccentricity: 0.0155864
inclination: 65.0586°
perigee height: 571 km
apogee height: 791 km
right ascension of ascending node: 130.4977°
argument of perigee: 280.8577°
revolutions per day: 14.63791724
mean anomaly at epoch: 77.5017°
orbit number at epoch: 1236

The dashed part of the orbit path shows where the satellite is in the earth's shadow,  

DLR